JES3782 SABE-SAZM

Flight info

Callsign JES3782
Flight time 0h 42m
Altitude 31000
Route PTA8 GBE UW29 VOTRA VOTRA1U
Aircraft A320/M-SDE3FGHIRWY/LB1

Departure

Time 2026-04-22 18:29
Airport Aeroparque Jorge Newbery (SABE)

Arrival

Time 2026-04-22 19:11
Airport Ástor Piazzola International Airport (SAZM)
Time Latitude Longitude Altitude Speed Heading
2026-04-22 17:56 -34.55758 -58.41323 29 ft 0 kts 35°
2026-04-22 18:16 -34.55760 -58.41325 25 ft 1 kts 34°
2026-04-22 18:16 -34.55775 -58.41336 28 ft 3 kts 14°
2026-04-22 18:17 -34.55793 -58.41338 31 ft 3 kts 345°
2026-04-22 18:17 -34.55811 -58.41329 27 ft 3 kts 315°
2026-04-22 18:17 -34.55818 -58.41319 30 ft 0 kts 303°
2026-04-22 18:20 -34.55815 -58.41325 27 ft 2 kts 303°
2026-04-22 18:20 -34.55801 -58.41351 28 ft 5 kts 303°
2026-04-22 18:20 -34.55777 -58.41397 30 ft 8 kts 303°
2026-04-22 18:21 -34.55744 -58.41458 28 ft 5 kts 302°
2026-04-22 18:21 -34.55723 -58.41502 27 ft 7 kts 297°
2026-04-22 18:21 -34.55732 -58.41557 27 ft 4 kts 221°
2026-04-22 18:21 -34.55755 -58.41576 28 ft 5 kts 213°
2026-04-22 18:22 -34.55793 -58.41596 29 ft 7 kts 179°
2026-04-22 18:22 -34.55823 -58.41542 27 ft 9 kts 117°
2026-04-22 18:22 -34.55857 -58.41461 29 ft 12 kts 117°
2026-04-22 18:22 -34.55899 -58.41362 26 ft 10 kts 117°
2026-04-22 18:23 -34.55922 -58.41309 29 ft 4 kts 118°
2026-04-22 18:23 -34.55942 -58.41272 27 ft 7 kts 126°
2026-04-22 18:23 -34.55975 -58.41217 27 ft 9 kts 127°
2026-04-22 18:24 -34.56038 -58.41119 30 ft 4 kts 127°
2026-04-22 18:24 -34.56062 -58.41081 28 ft 7 kts 127°
2026-04-22 18:24 -34.56137 -58.40958 28 ft 12 kts 123°
2026-04-22 18:25 -34.56171 -58.40882 28 ft 10 kts 105°
2026-04-22 18:25 -34.56191 -58.40796 28 ft 12 kts 123°
2026-04-22 18:25 -34.56244 -58.40700 28 ft 15 kts 124°
2026-04-22 18:26 -34.56374 -58.40513 28 ft 10 kts 136°
2026-04-22 18:26 -34.56413 -58.40471 26 ft 0 kts 139°
2026-04-22 18:26 -34.56415 -58.40469 26 ft 1 kts 139°
2026-04-22 18:26 -34.56431 -58.40453 27 ft 4 kts 139°
2026-04-22 18:27 -34.56460 -58.40420 25 ft 7 kts 137°
2026-04-22 18:27 -34.56509 -58.40381 25 ft 10 kts 173°
2026-04-22 18:27 -34.56561 -58.40436 27 ft 12 kts 263°
2026-04-22 18:27 -34.56532 -58.40491 29 ft 0 kts 305°
2026-04-22 18:28 -34.56519 -58.40514 30 ft 23 kts 305°
2026-04-22 18:28 -34.56276 -58.40948 31 ft 97 kts 304°
2026-04-22 18:28 -34.55788 -58.41826 31 ft 150 kts 305°
2026-04-22 18:28 -34.55205 -58.42889 612 ft 151 kts 298°
2026-04-22 18:29 -34.54588 -58.43941 1201 ft 157 kts 313°
2026-04-22 18:29 -34.53542 -58.44613 1495 ft 186 kts 347°
2026-04-22 18:29 -34.52177 -58.44447 1795 ft 214 kts 24°
2026-04-22 18:29 -34.50866 -58.43405 2213 ft 239 kts 45°
2026-04-22 18:30 -34.50015 -58.41602 2682 ft 260 kts 81°
2026-04-22 18:30 -34.50669 -58.37234 4438 ft 271 kts 110°
2026-04-22 18:30 -34.51196 -58.35012 5371 ft 277 kts 110°
2026-04-22 18:31 -34.51972 -58.32878 6253 ft 277 kts 131°
2026-04-22 18:31 -34.53348 -58.31302 7104 ft 272 kts 155°
2026-04-22 18:31 -34.55098 -58.30542 7967 ft 266 kts 178°
2026-04-22 18:31 -34.56936 -58.30610 8843 ft 265 kts 191°
2026-04-22 18:32 -34.58757 -58.30862 9734 ft 269 kts 191°
2026-04-22 18:32 -34.60668 -58.31125 10406 ft 281 kts 191°
2026-04-22 18:32 -34.62695 -58.31408 10691 ft 304 kts 191°
2026-04-22 18:32 -34.64817 -58.31697 11209 ft 316 kts 191°
2026-04-22 18:33 -34.67034 -58.31991 11854 ft 325 kts 192°
2026-04-22 18:33 -34.69306 -58.32289 12532 ft 332 kts 192°
2026-04-22 18:33 -34.71628 -58.32593 13209 ft 339 kts 193°
2026-04-22 18:33 -34.73996 -58.32908 13861 ft 346 kts 193°
2026-04-22 18:34 -34.76421 -58.33232 14436 ft 353 kts 193°
2026-04-22 18:34 -34.78878 -58.33559 15044 ft 358 kts 193°
2026-04-22 18:34 -34.81375 -58.33890 15661 ft 363 kts 194°
2026-04-22 18:34 -34.83899 -58.34223 16278 ft 367 kts 194°
2026-04-22 18:35 -34.86451 -58.34564 16896 ft 371 kts 194°
2026-04-22 18:35 -34.89037 -58.34908 17522 ft 376 kts 194°
2026-04-22 18:35 -34.91651 -58.35255 18139 ft 380 kts 194°
2026-04-22 18:35 -34.94297 -58.35605 18734 ft 384 kts 194°
2026-04-22 18:36 -34.96969 -58.35957 19295 ft 388 kts 194°
2026-04-22 18:36 -34.99660 -58.36313 19868 ft 391 kts 194°
2026-04-22 18:36 -35.02381 -58.36676 20451 ft 394 kts 194°
2026-04-22 18:36 -35.05116 -58.37041 21015 ft 397 kts 194°
2026-04-22 18:37 -35.07878 -58.37413 21560 ft 400 kts 194°
2026-04-22 18:37 -35.10660 -58.37788 22087 ft 404 kts 194°
2026-04-22 18:37 -35.12512 -58.38037 22430 ft 406 kts 194°
2026-04-22 18:37 -35.16288 -58.38541 23154 ft 410 kts 195°
2026-04-22 18:38 -35.19134 -58.38919 23667 ft 414 kts 195°
2026-04-22 18:38 -35.22007 -58.39302 24104 ft 416 kts 195°
2026-04-22 18:38 -35.24891 -58.39690 24551 ft 418 kts 195°
2026-04-22 18:39 -35.30711 -58.40475 25455 ft 422 kts 195°
2026-04-22 18:39 -35.33596 -58.40864 25905 ft 424 kts 195°
2026-04-22 18:39 -35.36538 -58.41260 26349 ft 426 kts 195°
2026-04-22 18:39 -35.39491 -58.41658 26802 ft 428 kts 195°
2026-04-22 18:40 -35.42463 -58.42061 27242 ft 430 kts 195°
2026-04-22 18:40 -35.45444 -58.42465 27672 ft 432 kts 195°
2026-04-22 18:40 -35.48443 -58.42871 28096 ft 434 kts 195°
2026-04-22 18:40 -35.51453 -58.43279 28520 ft 437 kts 195°
2026-04-22 18:41 -35.54480 -58.43688 28949 ft 439 kts 195°
2026-04-22 18:41 -35.57524 -58.44096 29377 ft 441 kts 195°
2026-04-22 18:41 -35.60576 -58.44507 29837 ft 443 kts 195°
2026-04-22 18:41 -35.63651 -58.44921 30230 ft 446 kts 195°
2026-04-22 18:42 -35.66745 -58.45342 30568 ft 448 kts 195°
2026-04-22 18:42 -35.69853 -58.45769 30904 ft 451 kts 196°
2026-04-22 18:42 -35.72982 -58.46160 31057 ft 455 kts 192°
2026-04-22 18:42 -35.76140 -58.45996 31089 ft 454 kts 181°
2026-04-22 18:43 -35.82303 -58.44103 31098 ft 456 kts 174°
2026-04-22 18:43 -35.88411 -58.42085 31084 ft 454 kts 174°
2026-04-22 18:44 -35.94516 -58.40114 31083 ft 453 kts 174°
2026-04-22 18:44 -36.00615 -58.38125 31117 ft 453 kts 174°
2026-04-22 18:45 -36.06716 -58.36127 31098 ft 454 kts 174°
2026-04-22 18:45 -36.12828 -58.34117 31086 ft 455 kts 174°
2026-04-22 18:46 -36.18947 -58.32099 31074 ft 455 kts 174°
2026-04-22 18:46 -36.25028 -58.30092 31084 ft 456 kts 174°
2026-04-22 18:47 -36.31155 -58.28065 31077 ft 456 kts 174°
2026-04-22 18:47 -36.37289 -58.26043 31073 ft 456 kts 174°
2026-04-22 18:48 -36.43426 -58.24014 31082 ft 457 kts 174°
2026-04-22 18:48 -36.49569 -58.21978 31069 ft 457 kts 174°
2026-04-22 18:49 -36.55725 -58.19931 30994 ft 459 kts 174°
2026-04-22 18:49 -36.58806 -58.18905 30750 ft 458 kts 173°
2026-04-22 18:49 -36.61877 -58.17878 30513 ft 457 kts 173°
2026-04-22 18:50 -36.64946 -58.16851 30266 ft 457 kts 173°
2026-04-22 18:50 -36.68013 -58.15822 30014 ft 456 kts 173°
2026-04-22 18:50 -36.71071 -58.14800 29730 ft 454 kts 173°
2026-04-22 18:50 -36.74109 -58.13784 29305 ft 450 kts 173°
2026-04-22 18:51 -36.77124 -58.12773 28746 ft 447 kts 173°
2026-04-22 18:51 -36.80116 -58.11768 28198 ft 445 kts 173°
2026-04-22 18:51 -36.83098 -58.10771 27675 ft 442 kts 172°
2026-04-22 18:51 -36.86065 -58.09775 27134 ft 440 kts 172°
2026-04-22 18:52 -36.89006 -58.08790 26642 ft 437 kts 172°
2026-04-22 18:52 -36.91939 -58.07804 26142 ft 435 kts 172°
2026-04-22 18:52 -36.94855 -58.06823 25667 ft 433 kts 172°
2026-04-22 18:52 -36.97760 -58.05847 25192 ft 432 kts 172°
2026-04-22 18:53 -37.00655 -58.04876 24707 ft 431 kts 171°
2026-04-22 18:53 -37.03546 -58.03903 24239 ft 429 kts 171°
2026-04-22 18:53 -37.06377 -58.02664 23788 ft 434 kts 160°
2026-04-22 18:53 -37.09021 -58.00816 23281 ft 437 kts 150°
2026-04-22 18:54 -37.11557 -57.98733 22796 ft 434 kts 151°
2026-04-22 18:54 -37.14070 -57.96672 22345 ft 430 kts 151°
2026-04-22 18:54 -37.16571 -57.94624 21818 ft 428 kts 151°
2026-04-22 18:54 -37.19026 -57.92617 21320 ft 426 kts 151°
2026-04-22 18:55 -37.21496 -57.90600 20824 ft 423 kts 151°
2026-04-22 18:55 -37.23955 -57.88592 20320 ft 420 kts 152°
2026-04-22 18:55 -37.26398 -57.86600 19809 ft 418 kts 152°
2026-04-22 18:55 -37.28836 -57.84610 19296 ft 416 kts 152°
2026-04-22 18:56 -37.31254 -57.82627 18806 ft 415 kts 152°
2026-04-22 18:56 -37.33671 -57.80636 18255 ft 415 kts 152°
2026-04-22 18:56 -37.36077 -57.78651 17700 ft 412 kts 152°
2026-04-22 18:56 -37.38460 -57.76687 17180 ft 408 kts 152°
2026-04-22 18:57 -37.40825 -57.74740 16671 ft 404 kts 152°
2026-04-22 18:57 -37.43168 -57.72810 16157 ft 401 kts 152°
2026-04-22 18:57 -37.45487 -57.70894 15672 ft 397 kts 152°
2026-04-22 18:57 -37.47780 -57.68995 15200 ft 393 kts 152°
2026-04-22 18:58 -37.50042 -57.67120 14811 ft 386 kts 152°
2026-04-22 18:58 -37.52274 -57.65276 14323 ft 382 kts 153°
2026-04-22 18:58 -37.54509 -57.63484 13817 ft 378 kts 154°
2026-04-22 18:58 -37.56734 -57.61748 13316 ft 374 kts 154°
2026-04-22 18:59 -37.58939 -57.60050 12867 ft 368 kts 154°
2026-04-22 18:59 -37.61116 -57.58378 12391 ft 364 kts 154°
2026-04-22 18:59 -37.63271 -57.56714 11864 ft 363 kts 154°
2026-04-22 18:59 -37.65408 -57.55052 11430 ft 356 kts 154°
2026-04-22 19:00 -37.67480 -57.53425 10847 ft 344 kts 154°
2026-04-22 19:00 -37.69467 -57.51858 10423 ft 330 kts 154°
2026-04-22 19:00 -37.71366 -57.50358 10062 ft 315 kts 154°
2026-04-22 19:00 -37.73159 -57.48938 9902 ft 295 kts 155°
2026-04-22 19:01 -37.74296 -57.48039 9677 ft 288 kts 155°
2026-04-22 19:01 -37.76539 -57.46282 9430 ft 284 kts 155°
2026-04-22 19:01 -37.78203 -57.44984 9102 ft 286 kts 155°
2026-04-22 19:01 -37.79899 -57.43659 8759 ft 287 kts 155°
2026-04-22 19:02 -37.81572 -57.42344 8606 ft 279 kts 155°
2026-04-22 19:02 -37.83200 -57.41058 8451 ft 271 kts 155°
2026-04-22 19:02 -37.84256 -57.40222 8362 ft 259 kts 155°
2026-04-22 19:02 -37.85734 -57.39045 8232 ft 242 kts 155°
2026-04-22 19:03 -37.87154 -57.37920 7711 ft 244 kts 156°
2026-04-22 19:03 -37.88620 -57.36775 7070 ft 251 kts 155°
2026-04-22 19:03 -37.90091 -57.35625 6583 ft 251 kts 155°
2026-04-22 19:03 -37.91554 -57.34470 6218 ft 245 kts 155°
2026-04-22 19:04 -37.92999 -57.33432 5894 ft 230 kts 167°
2026-04-22 19:04 -37.94483 -57.33014 5602 ft 211 kts 185°
2026-04-22 19:04 -37.95895 -57.33195 5347 ft 200 kts 201°
2026-04-22 19:04 -37.97199 -57.33768 5061 ft 198 kts 205°
2026-04-22 19:05 -37.98482 -57.34348 4778 ft 192 kts 205°
2026-04-22 19:05 -37.99711 -57.34898 4521 ft 183 kts 205°
2026-04-22 19:05 -38.00884 -57.35421 4268 ft 175 kts 205°
2026-04-22 19:05 -38.02007 -57.35921 4016 ft 168 kts 206°
2026-04-22 19:06 -38.03063 -57.36459 3828 ft 158 kts 219°
2026-04-22 19:06 -38.03703 -57.37488 3598 ft 147 kts 251°
2026-04-22 19:06 -38.03727 -57.38752 3394 ft 146 kts 282°
2026-04-22 19:07 -38.02504 -57.40803 2981 ft 143 kts 304°
2026-04-22 19:07 -38.01836 -57.41671 2739 ft 134 kts 305°
2026-04-22 19:07 -38.01191 -57.42498 2484 ft 130 kts 306°
2026-04-22 19:07 -38.00564 -57.43311 2362 ft 129 kts 305°
2026-04-22 19:08 -37.99940 -57.44132 2282 ft 130 kts 305°
2026-04-22 19:08 -37.99312 -57.44965 2159 ft 132 kts 305°
2026-04-22 19:08 -37.98589 -57.45705 1931 ft 137 kts 323°
2026-04-22 19:08 -37.97776 -57.46331 1725 ft 138 kts 323°
2026-04-22 19:09 -37.97156 -57.47128 1395 ft 127 kts 282°
2026-04-22 19:09 -37.96912 -57.48184 1210 ft 125 kts 281°
2026-04-22 19:09 -37.96630 -57.49229 1117 ft 124 kts 283°
2026-04-22 19:09 -37.96359 -57.50261 983 ft 123 kts 281°
2026-04-22 19:10 -37.96118 -57.51291 921 ft 124 kts 283°
2026-04-22 19:10 -37.95819 -57.52310 753 ft 122 kts 283°
2026-04-22 19:10 -37.95427 -57.53293 575 ft 126 kts 295°
2026-04-22 19:10 -37.94975 -57.54262 423 ft 129 kts 298°
2026-04-22 19:11 -37.94487 -57.55213 276 ft 129 kts 297°
2026-04-22 19:11 -37.94000 -57.56174 100 ft 130 kts 298°
2026-04-22 19:11 -37.93552 -57.57074 52 ft 97 kts 303°
2026-04-22 19:11 -37.93307 -57.57554 49 ft 39 kts 303°
2026-04-22 19:12 -37.93241 -57.57681 53 ft 7 kts 303°
2026-04-22 19:12 -37.93210 -57.57740 54 ft 9 kts 302°
2026-04-22 19:12 -37.93162 -57.57836 51 ft 16 kts 303°
2026-04-22 19:12 -37.93126 -57.57930 54 ft 9 kts 275°
2026-04-22 19:13 -37.93174 -57.57994 54 ft 12 kts 211°
2026-04-22 19:13 -37.93246 -57.58041 51 ft 6 kts 185°
2026-04-22 19:13 -37.93298 -57.58025 54 ft 9 kts 168°
2026-04-22 19:13 -37.93343 -57.58037 54 ft 0 kts 279°
2026-04-22 19:14 -37.93343 -57.58047 54 ft 3 kts 283°
2026-04-22 19:14 -37.93334 -57.58061 54 ft 1 kts 318°
2026-04-22 19:14 -37.93328 -57.58067 54 ft 0 kts 316°